This is the latest recevied weather packets stored in our database for station/object OE-11061. If no packets are shown the sender has not sent any weather packets the latest 10 day(s).
| Time | Temp. | Humidity | Pressure | Rain* | Wind** | Luminosity | Snow |
|---|---|---|---|---|---|---|---|
| 1787676919 | 16.67° C | 86% | 1015.5 hPa | 0.51 mm | - | 97 W/m² | - |
| 1787676093 | 16.67° C | 88% | 1015.6 hPa | 0.51 mm | - | 60 W/m² | - |
| 1787675719 | 16.67° C | 89% | 1015.6 hPa | 0.51 mm | - | 60 W/m² | - |
| 1787675119 | 16.67° C | 88% | 1015.5 hPa | 0.51 mm | - | 52 W/m² | - |
| 1787674292 | 16.67° C | 87% | 1015.5 hPa | 0.25 mm | - | 52 W/m² | - |
| 1787673920 | 17.22° C | 82% | 1015.5 hPa | 0 mm | - | 52 W/m² | - |
| 1787673320 | 17.78° C | 79% | 1015.3 hPa | 0 mm | - | 67 W/m² | - |
| 1787672493 | 17.78° C | 80% | 1015.3 hPa | 0 mm | - | 60 W/m² | - |
| 1787672120 | 17.78° C | 79% | 1015.3 hPa | 0 mm | - | 60 W/m² | - |
| 1787671520 | 17.78° C | 78% | 1015.2 hPa | 0 mm | - | 97 W/m² | - |
| 1787670693 | 17.78° C | 78% | 1015 hPa | 0 mm | - | 119 W/m² | - |
| 1787670320 | 18.33° C | 77% | 1014.9 hPa | 0 mm | - | 142 W/m² | - |
| 1787669720 | 18.33° C | 77% | 1014.9 hPa | 0 mm | - | 157 W/m² | - |
| 1787668893 | 18.33° C | 76% | 1014.8 hPa | 0 mm | - | 157 W/m² | - |
| 1787668520 | 17.78° C | 76% | 1014.8 hPa | 0 mm | - | 187 W/m² | - |
| 1787667919 | 17.78° C | 77% | 1014.8 hPa | 0 mm | - | 157 W/m² | - |
| 1787667092 | 17.78° C | 76% | 1014.8 hPa | 0 mm | - | 142 W/m² | - |
| 1787666720 | 17.78° C | 77% | 1014.8 hPa | 0 mm | - | 97 W/m² | - |
| 1787666120 | 17.78° C | 78% | 1014.5 hPa | 0 mm | - | 112 W/m² | - |
| 1787665293 | 17.78° C | 78% | 1014.5 hPa | 0 mm | - | 105 W/m² | - |
| 1787664920 | 17.78° C | 79% | 1014.4 hPa | 0 mm | - | 97 W/m² | - |
| 1787664320 | 17.78° C | 78% | 1014.3 hPa | 0 mm | - | 112 W/m² | - |
| 1787663493 | 17.78° C | 78% | 1014.2 hPa | 0 mm | - | 127 W/m² | - |
| 1787663120 | 18.33° C | 77% | 1014.1 hPa | 0 mm | - | 164 W/m² | - |
| 1787662520 | 18.33° C | 74% | 1014 hPa | 0 mm | - | 246 W/m² | - |
* Rain latest hour (hover to see other rain measurements)
** Current wind speed in m/s (hover to see current wind gust speed)